Tracking 19792 objects as of 16-Jul-2019
HD Live streaming from Space Station
objects crossing your sky now

OPS 7518 (NTS 1)

Track OPS 7518 (NTS 1) now!
10-day predictions
OPS 7518 (NTS 1) is classified as:


NORAD ID: 7369
Int'l Code: 1974-054A
Perigee: 13,471.5 km
Apogee: 13,762.9 km
Inclination: 125.1 °
Period: 468.7 minutes
Semi major axis: 19988 km
RCS: 0.8 m2 (medium)
Launch date: July 14, 1974
Source: United States (US)
Launch site: AIR FORCE WESTERN TEST RANGE (AFWTR)
aabbcc
Your satellite tracking list
Your tracking list is empty




NASA's NSSDC Master Catalog

Two Line Element Set (TLE):
1  7369U 74054A   19193.62662216  .00000028  00000-0  00000+0 0  9998
2  7369 125.1489 334.1076 0072878 285.4144 111.1197  3.07214673504914
Source of the keplerian elements: AFSPC